Location: Melara
(45.0500°N, 11.1833°E)
Time: 07:01:08
(UTC+00:00)

IRS-1D - Visible Passes

Search period start: 06 October 2022 00:00
Search period end: 16 October 2022 00:00
Orbit: 740 x 815 km, 98.7° (Epoch: 05 October)

Date Brightness Start Highest point End Pass type
(mag) Time Alt. Az. Time Alt. Az. Time Alt. Az.
06 Oct 5.6 01:26:31 10° NNE 01:28:58 24° NE 01:28:58 24° NE visible
06 Oct 4.6 03:05:46 10° N 03:09:25 31° NW 03:09:25 31° NW visible
07 Oct 6.3 00:54:23 10° NE 00:55:21 13° ENE 00:55:21 13° ENE visible
07 Oct 4.4 02:32:22 10° N 02:35:48 40° N 02:35:48 40° N visible
07 Oct 5.6 04:14:59 10° NW 04:15:44 10° NW 04:16:16 10° WNW visible
08 Oct 5.0 01:59:16 10° NNE 02:02:12 33° NNE 02:02:12 33° NNE visible
08 Oct 5.1 03:39:35 10° NNW 03:42:39 19° NW 03:42:39 19° NW visible
09 Oct 5.8 01:26:31 10° NNE 01:28:35 21° NE 01:28:35 21° NE visible
09 Oct 4.7 03:05:46 10° N 03:09:02 29° NW 03:09:02 29° NW visible
10 Oct 6.4 00:54:24 10° NE 00:54:57 12° NE 00:54:57 12° NE visible
10 Oct 4.7 02:32:21 10° N 02:35:24 35° N 02:35:24 35° N visible
10 Oct 5.6 04:15:03 10° NW 04:15:42 10° NW 04:15:52 10° NW visible
11 Oct 5.2 01:59:15 10° NNE 02:01:47 29° NNE 02:01:47 29° NNE visible
11 Oct 5.1 03:39:35 10° NNW 03:42:14 18° NW 03:42:14 18° NW visible
12 Oct 5.9 01:26:30 10° NNE 01:28:10 19° NE 01:28:10 19° NE visible
12 Oct 4.8 03:05:45 10° N 03:08:36 26° NNW 03:08:36 26° NNW visible
13 Oct 6.5 00:54:25 10° NE 00:54:32 10° NE 00:54:32 10° NE visible
13 Oct 4.9 02:32:20 10° N 02:34:59 30° N 02:34:59 30° N visible
13 Oct 5.6 04:15:07 10° NW 04:15:27 10° NW 04:15:27 10° NW visible
14 Oct 5.4 01:59:14 10° NNE 02:01:22 25° NNE 02:01:22 25° NNE visible
14 Oct 5.2 03:39:34 10° NNW 03:41:49 17° NW 03:41:49 17° NW visible
15 Oct 6.1 01:26:30 10° NNE 01:27:44 16° NE 01:27:44 16° NE visible
15 Oct 5.0 03:05:44 10° N 03:08:11 24° NNW 03:08:11 24° NNW visible
